Volver al catálogo

STARLINK-11481

ActivoComunicacionesVLEO
NORAD 62230·PAYLOAD·🇺🇸 United States

Lanzado Dec 5, 2024 desde Vandenberg Space Force Base

Loading…

Próximos Pases (próximas 24 horas)

TLE

ActualizadoSource: CelesTrak SupGP

Época: Sep 15, 2026, 02:17 UTC

1 62230C 24231N   26258.09562500 -.00022377  00000+0 -18419-3 0  2581
2 62230  53.1576 247.9059 0001218  85.6034 326.9047 15.69739413    16

Sigue STARLINK-11481 en tiempo real con AllMySat

Download on the App Store